Location: Melbourne
(37.8120°S, 144.9677°E)
Time: 09:37:06
(UTC+11:00)

ISS - Visible Passes

Search period start: 04 March 2015 00:00
Search period end: 14 March 2015 00:00
Orbit: 397 x 407 km, 51.6° (Epoch: 03 March)

Date Brightness Start Highest point End Pass type
(mag) Time Alt. Az. Time Alt. Az. Time Alt. Az.
04 Mar -1.6 20:22:59 10° N 20:25:10 17° NE 20:27:26 10° E visible
04 Mar -2.0 21:58:09 10° WNW 22:00:50 41° WSW 22:00:50 41° WSW visible
05 Mar -3.4 21:04:56 10° NW 21:08:15 90° NNE 21:10:53 16° SE visible
05 Mar 0.2 22:42:57 10° WSW 22:43:33 12° SW 22:43:33 12° SW visible
06 Mar -0.9 21:49:00 10° W 21:51:46 23° SSW 21:53:13 17° S visible
07 Mar -1.8 20:55:19 10° WNW 20:58:28 38° SSW 21:01:38 10° SE visible
07 Mar 0.2 22:34:46 10° SSW 22:35:13 11° SSW 22:35:13 11° SSW visible
08 Mar -0.3 21:40:13 10° WSW 21:42:10 14° SSW 21:44:05 10° SSE visible
09 Mar -0.8 20:46:04 10° WSW 20:48:42 21° SSW 20:51:19 10° SSE visible
10 Mar -0.1 21:32:12 10° SSW 21:32:33 10° SSW 21:32:51 10° S visible
11 Mar -0.4 20:37:12 10° SW 20:38:57 13° SSW 20:40:39 10° S visible
